Wind_Speed
7 7 8 8 7 7 7 7 7 6 6 6 6 7 7 7 8 8 8 9 9 10 10 10 11 12 13 14 15 14 14 15 15 15 16 16 16 16 16 16 15 15 14
7 7 7 7 7 7 6 6 6 5 5 4 5 5 5 6 7 8 8 8 9 9 9 10 11 12 12 13 14 14 14 14 15 16 16 16 17 17 17 17 16 16 16
6 7 7 7 7 7 6 6 5 5 4 3 3 4 4 5 6 7 7 7 8 8 9 9 10 11 12 12 13 13 14 15 15 16 16 17 17 17 18 18 17 17 17
6 7 7 7 7 6 6 6 5 4 3 2 2 2 4 4 5 6 6 6 7 8 8 8 9 10 11 12 13 12 13 15 15 16 16 17 18 18 18 18 19 19 19
6 7 7 7 7 6 6 5 5 4 3 1 1 2 3 4 4 5 6 6 6 7 7 7 8 9 10 11 12 12 13 14 15 15 16 17 18 19 19 19 19 20 20
6 7 7 7 7 6 6 5 5 4 2 1 0 1 2 3 4 4 5 5 6 7 7 7 7 8 9 10 11 12 13 13 14 15 16 17 18 19 20 20 20 20 20
6 6 6 6 6 6 6 6 5 4 3 2 1 1 1 2 3 3 4 4 5 6 6 7 7 7 8 9 10 10 11 12 14 15 17 18 18 20 20 20 20 21 21
5 6 5 6 6 6 6 6 5 5 4 3 2 2 1 1 2 2 3 3 4 5 5 7 7 8 8 9 9 9 11 12 12 15 16 18 19 20 21 21 20 20 20
5 5 5 5 5 5 5 5 5 5 4 3 3 2 1 1 1 1 2 2 3 3 4 5 6 7 8 9 9 9 10 12 13 14 15 16 17 19 20 20 20 21 21
4 5 5 4 4 5 5 5 5 5 5 4 4 3 3 2 1 0 1 1 1 2 3 3 4 5 7 8 9 9 10 11 12 13 14 15 16 17 18 19 20 21 21
4 4 4 4 4 3 4 4 5 5 5 4 4 4 3 3 2 1 1 0 1 2 2 3 4 4 5 6 8 9 10 11 12 13 14 14 15 16 16 18 19 20 21
3 3 4 4 3 3 3 3 4 4 4 4 4 3 3 3 3 2 2 1 1 1 2 3 3 4 4 5 6 8 9 10 11 13 13 15 15 15 15 16 17 18 19
1 2 2 3 3 3 3 3 3 3 3 3 3 3 3 3 3 2 2 2 2 2 2 3 3 3 4 5 6 7 8 9 10 10 11 13 14 15 15 16 17 17 17
2 2 2 2 2 2 3 3 3 3 3 3 3 3 3 3 2 2 2 3 3 3 3 3 3 4 5 5 6 7 8 9 9 9 10 12 14 14 15 15 16 16 16
3 2 2 3 3 3 3 3 3 2 2 2 2 2 2 2 2 3 3 4 4 4 4 4 4 5 6 7 7 7 8 10 10 10 10 11 13 14 14 14 15 16 17
4 4 4 4 4 4 4 4 3 3 2 2 2 2 2 2 3 3 4 5 5 5 5 5 6 6 6 6 7 8 9 10 11 11 12 12 13 14 15 16 17 17 18
5 5 5 5 4 4 3 3 3 3 3 3 3 3 3 4 4 4 5 6 6 6 6 7 7 7 8 8 8 9 10 10 11 12 13 14 15 16 16 17 18 19 20
7 6 5 5 4 4 3 3 4 4 4 4 5 5 5 6 6 6 6 7 7 8 8 8 9 9 9 10 10 10 11 12 12 13 14 15 16 17 18 19 20 21 22
8 7 6 5 5 5 4 4 5 5 5 6 6 7 7 7 8 8 8 9 9 9 9 9 10 10 11 12 13 13 13 13 14 15 16 17 17 18 20 21 21 22 23
10 9 7 7 6 6 6 6 6 6 6 7 7 8 8 9 9 10 10 11 11 11 11 11 12 12 13 14 14 15 15 15 16 17 17 18 20 21 22 22 23 24 25
11 11 9 9 8 8 8 8 8 8 8 8 9 9 10 10 11 12 12 12 13 13 13 14 14 15 15 16 17 17 18 18 18 19 20 20 21 22 23 24 25 26 27
12 12 11 10 10 10 10 10 10 10 10 10 11 11 12 13 13 14 14 14 15 15 16 16 16 17 18 19 19 20 20 20 20 21 21 22 23 24 25 26 27 28 29
14 13 12 12 12 12 11 12 12 12 12 12 12 13 13 14 15 15 16 16 17 17 18 19 19 19 20 21 21 21 22 22 22 23 24 24 25 26 26 27 28 29 31
15 14 14 14 13 13 13 14 14 14 14 14 15 15 16 16 17 18 19 19 20 20 21 21 22 23 23 23 23 24 24 25 25 26 26 27 27 27 28 29 30 31 32
17 16 16 16 15 16 16 16 16 16 16 17 17 18 18 19 20 21 21 22 23 23 24 25 25 26 26 26 26 27 27 27 28 29 29 29 29 30 31 31 32 33 34
17 17 17 17 18 18 18 18 19 19 19 19 20 21 21 22 23 23 24 25 25 26 27 27 28 28 28 28 29 29 30 30 31 31 32 32 33 33 32 33 34 35 36
Wind_Direction
332 334 338 336 329 324 322 318 310 299 285 276 263 254 246 239 232 232 232 231 228 225 225 222 221 215 214 216 216 219 222 222 223 222 223 221 221 222 222 223 226 227 226
336 335 340 338 334 330 324 320 312 298 289 277 263 253 243 236 227 227 227 227 226 225 224 221 218 213 214 216 216 219 221 223 222 221 222 223 224 222 223 226 228 229 229
336 337 341 342 341 339 332 328 321 309 298 281 261 245 232 229 223 224 225 225 224 223 223 220 219 217 216 217 217 219 221 223 222 222 224 225 226 225 227 228 228 230 231
339 340 341 347 348 345 343 341 338 328 314 291 260 232 217 217 218 219 220 222 221 221 223 222 220 218 219 218 220 222 221 223 224 226 228 228 229 229 229 230 231 231 231
349 349 351 353 355 353 353 355 352 348 338 316 264 220 205 205 211 214 215 220 223 223 223 224 224 221 221 218 219 223 224 223 225 229 231 232 231 231 232 233 233 232 231
356 357 360 1 2 4 5 3 2 2 6 7 237 206 203 201 205 209 212 220 226 227 224 225 226 224 223 221 225 226 224 224 227 231 236 237 235 234 234 235 234 233 233
359 360 3 4 6 10 14 15 15 17 23 37 70 156 187 190 197 208 216 221 228 232 229 224 225 225 224 226 227 227 229 231 233 237 242 240 239 238 236 236 235 235 235
358 3 7 7 10 12 19 23 26 30 32 42 55 82 137 164 188 209 221 227 232 234 230 226 226 229 231 233 232 234 234 236 239 243 244 244 243 240 237 236 236 236 236
360 5 11 17 20 25 30 32 33 36 39 46 52 60 88 111 144 205 224 227 228 229 234 235 233 234 237 240 243 245 243 242 244 247 247 247 245 241 237 235 236 238 238
3 10 19 27 30 34 38 39 39 42 44 50 56 66 77 88 96 99 204 229 229 228 236 244 244 244 244 246 246 248 250 252 252 252 251 249 245 240 236 235 237 238 239
9 15 21 29 30 31 38 43 44 43 45 51 58 64 70 68 64 81 78 340 269 243 247 256 259 256 255 255 252 253 255 257 257 255 250 247 243 240 236 236 238 241 241
2 9 15 19 25 30 34 38 40 42 44 47 57 63 63 60 64 68 64 48 355 282 265 267 269 267 267 267 262 258 260 261 260 258 251 245 241 239 237 236 239 241 241
332 350 2 9 20 27 29 30 30 32 34 45 53 55 56 55 53 47 40 23 353 316 289 278 277 273 270 277 273 266 268 267 265 262 256 247 239 237 238 238 238 241 241
280 304 321 338 354 8 12 10 13 20 31 40 45 50 50 44 39 24 12 359 349 336 314 298 287 282 281 284 282 275 273 270 268 267 261 251 242 236 237 237 237 239 240
262 281 298 303 314 317 320 331 340 350 8 19 25 30 30 23 10 355 349 347 340 327 314 302 292 287 284 282 283 280 278 276 272 269 263 255 249 240 240 240 240 240 241
260 273 281 288 301 308 314 320 323 326 326 327 339 342 338 332 333 334 334 336 335 328 317 306 303 299 293 288 286 284 280 277 273 270 265 261 257 251 247 248 247 246 245
264 268 280 294 302 302 311 319 319 314 312 311 314 316 319 319 318 319 322 323 322 320 319 310 306 303 301 298 292 286 279 278 278 271 266 264 261 257 255 253 254 253 251
265 264 273 285 291 291 295 301 303 301 303 305 304 302 303 305 305 308 309 312 312 313 314 310 303 300 300 299 297 293 288 283 280 277 271 267 265 263 263 259 258 258 258
266 264 265 270 275 281 286 289 292 294 297 300 301 300 299 299 302 301 300 302 304 307 309 308 305 299 297 297 297 296 293 288 284 279 275 273 271 269 269 267 265 263 262
260 260 260 266 270 274 278 283 286 290 291 295 296 297 299 298 298 299 299 298 301 303 304 305 304 300 297 295 295 295 293 291 288 283 279 276 274 273 271 269 268 267 266
258 260 257 261 265 269 274 278 282 286 288 292 294 296 299 300 299 298 300 301 301 302 302 302 303 301 299 298 296 294 293 291 290 285 282 278 276 275 273 272 271 270 269
257 257 257 260 264 267 270 273 278 283 287 291 294 296 298 299 299 298 299 299 300 300 300 301 300 301 299 297 295 293 291 289 288 286 284 282 279 278 277 276 274 273 273
257 255 256 260 263 266 270 273 276 280 285 287 290 294 298 300 301 299 299 300 300 300 299 298 296 297 298 296 294 292 291 290 288 287 286 285 283 282 280 279 278 276 275
256 255 256 258 261 266 270 274 276 280 283 286 288 291 295 298 299 299 298 297 297 297 297 297 296 295 295 294 293 292 291 290 289 289 288 286 284 283 282 281 279 277 276
255 254 256 258 262 267 269 274 277 279 281 285 287 289 292 295 297 298 297 296 295 295 296 297 297 296 294 293 292 291 291 290 289 289 288 286 285 284 284 283 282 281 279
255 255 259 261 264 268 271 274 277 280 281 283 285 288 290 293 295 296 296 295 294 294 295 296 296 294 293 292 292 291 290 290 290 289 288 287 286 284 282 282 282 282 281
Height
5880 5878 5876 5874 5873 5871 5869 5868 5867 5866 5866 5865 5865 5866 5867 5867 5868 5869 5870 5871 5872 5873 5874 5875 5876 5877 5879 5881 5883 5885 5887 5889 5891 5893 5895 5897 5899 5901 5902 5904 5906 5907 5909
5879 5877 5875 5874 5872 5870 5868 5867 5866 5865 5864 5864 5864 5864 5865 5866 5867 5868 5869 5870 5871 5871 5872 5873 5875 5876 5877 5879 5881 5883 5885 5887 5889 5891 5893 5895 5896 5898 5900 5902 5903 5905 5906
5878 5876 5875 5873 5871 5869 5867 5866 5865 5864 5863 5862 5863 5863 5863 5864 5865 5866 5867 5868 5869 5870 5871 5872 5873 5874 5876 5877 5879 5881 5883 5884 5886 5888 5890 5892 5893 5895 5897 5899 5901 5902 5904
5876 5875 5873 5872 5870 5868 5866 5865 5864 5863 5862 5862 5862 5862 5862 5863 5864 5865 5866 5867 5868 5869 5869 5870 5871 5872 5874 5875 5877 5879 5880 5882 5884 5885 5887 5889 5890 5892 5894 5896 5898 5899 5901
5876 5874 5873 5871 5869 5867 5866 5864 5863 5862 5862 5861 5861 5861 5862 5862 5863 5864 5865 5865 5866 5867 5868 5869 5870 5871 5872 5873 5875 5876 5878 5879 5881 5883 5884 5885 5887 5889 5891 5892 5894 5896 5897
5875 5874 5872 5870 5868 5867 5865 5864 5863 5862 5861 5861 5861 5860 5861 5861 5862 5863 5864 5864 5865 5865 5866 5867 5868 5869 5870 5872 5873 5874 5875 5877 5878 5880 5881 5882 5883 5885 5887 5888 5890 5892 5894
5874 5873 5872 5870 5868 5867 5865 5864 5863 5862 5861 5861 5860 5860 5860 5860 5861 5862 5863 5863 5864 5864 5865 5866 5867 5868 5869 5870 5871 5872 5873 5874 5875 5876 5877 5878 5878 5880 5882 5884 5886 5888 5889
5874 5873 5871 5870 5868 5867 5866 5864 5863 5862 5861 5861 5860 5860 5860 5861 5861 5861 5862 5862 5863 5863 5864 5864 5865 5866 5867 5868 5869 5870 5871 5872 5872 5873 5873 5873 5873 5874 5876 5879 5882 5883 5885
5874 5872 5871 5869 5868 5867 5866 5865 5864 5863 5862 5861 5861 5860 5860 5860 5860 5861 5861 5861 5862 5862 5863 5863 5864 5865 5866 5866 5867 5867 5868 5869 5869 5869 5869 5868 5867 5868 5871 5874 5877 5879 5881
5873 5872 5871 5869 5868 5867 5866 5865 5864 5863 5862 5862 5861 5860 5861 5860 5861 5861 5861 5861 5861 5861 5862 5862 5863 5863 5864 5864 5865 5865 5866 5866 5866 5866 5865 5864 5864 5864 5867 5870 5873 5875 5876
5873 5872 5871 5869 5868 5867 5866 5866 5865 5864 5863 5862 5861 5861 5861 5861 5860 5861 5861 5861 5861 5861 5861 5861 5861 5862 5862 5862 5862 5863 5863 5863 5863 5862 5862 5861 5861 5862 5864 5866 5868 5870 5871
5872 5871 5870 5870 5869 5868 5867 5866 5865 5864 5863 5863 5862 5862 5861 5861 5860 5860 5860 5860 5860 5860 5860 5860 5860 5860 5860 5860 5860 5860 5860 5860 5860 5859 5857 5857 5858 5859 5861 5862 5864 5865 5866
5872 5871 5870 5870 5869 5868 5867 5866 5865 5864 5864 5863 5862 5862 5861 5861 5861 5860 5860 5860 5860 5859 5859 5859 5859 5859 5858 5858 5858 5858 5858 5857 5857 5856 5854 5854 5855 5856 5858 5859 5860 5861 5862
5871 5870 5870 5869 5868 5867 5866 5866 5865 5864 5864 5863 5863 5862 5862 5861 5861 5861 5860 5860 5859 5859 5858 5858 5857 5857 5857 5857 5856 5856 5855 5855 5854 5853 5853 5852 5852 5853 5854 5855 5857 5858 5859
5870 5869 5869 5868 5867 5866 5866 5865 5864 5864 5863 5863 5862 5862 5862 5861 5861 5860 5860 5859 5859 5858 5857 5856 5856 5855 5855 5855 5854 5854 5853 5853 5852 5851 5851 5850 5851 5851 5852 5853 5854 5855 5856
5868 5868 5867 5867 5866 5865 5864 5864 5863 5863 5863 5862 5862 5862 5861 5861 5860 5860 5859 5858 5858 5857 5856 5855 5854 5854 5853 5852 5852 5851 5851 5850 5850 5849 5848 5848 5848 5849 5850 5850 5851 5852 5853
5867 5866 5866 5865 5864 5864 5863 5863 5862 5862 5862 5861 5861 5861 5860 5860 5859 5859 5858 5857 5856 5855 5855 5854 5852 5852 5851 5850 5850 5849 5848 5847 5847 5846 5846 5845 5846 5846 5846 5847 5847 5848 5848
5865 5864 5864 5863 5863 5862 5862 5862 5861 5861 5861 5860 5860 5859 5859 5858 5858 5857 5856 5855 5855 5854 5853 5852 5850 5849 5849 5848 5847 5846 5845 5844 5843 5843 5842 5842 5842 5842 5842 5842 5843 5843 5844
5862 5862 5862 5862 5861 5861 5861 5860 5860 5860 5859 5858 5858 5857 5857 5856 5855 5855 5854 5853 5852 5851 5850 5849 5848 5847 5846 5845 5843 5842 5841 5840 5840 5839 5838 5838 5838 5837 5837 5837 5837 5837 5838
5860 5860 5860 5860 5860 5859 5859 5859 5858 5858 5857 5856 5856 5855 5854 5854 5853 5852 5851 5850 5849 5848 5847 5846 5845 5844 5843 5841 5840 5839 5838 5836 5835 5834 5834 5833 5832 5832 5831 5831 5831 5831 5831
5857 5857 5857 5857 5857 5857 5857 5857 5856 5856 5855 5854 5853 5853 5852 5851 5850 5849 5848 5847 5846 5845 5844 5843 5841 5840 5839 5837 5836 5834 5833 5832 5830 5829 5828 5827 5826 5826 5825 5824 5824 5823 5823
5854 5854 5854 5854 5855 5855 5854 5854 5853 5853 5852 5852 5851 5850 5849 5848 5846 5845 5844 5843 5842 5841 5840 5839 5837 5836 5834 5833 5831 5829 5828 5826 5825 5824 5822 5821 5820 5819 5818 5817 5816 5815 5814
5850 5851 5851 5851 5851 5851 5851 5851 5850 5850 5849 5848 5848 5847 5846 5844 5843 5842 5840 5839 5838 5837 5835 5834 5832 5831 5829 5828 5826 5824 5822 5820 5818 5817 5816 5814 5812 5811 5809 5808 5807 5806 5805
5846 5847 5847 5847 5848 5848 5848 5847 5847 5846 5845 5845 5844 5843 5842 5840 5839 5837 5836 5835 5833 5831 5830 5828 5827 5825 5823 5821 5819 5817 5815 5814 5812 5810 5808 5806 5804 5803 5801 5799 5797 5796 5795
5842 5842 5843 5843 5844 5844 5843 5843 5842 5842 5841 5840 5839 5838 5837 5835 5834 5832 5831 5829 5827 5825 5823 5821 5819 5817 5815 5813 5811 5810 5808 5806 5804 5802 5799 5798 5796 5794 5793 5791 5788 5786 5785
5837 5838 5838 5839 5839 5839 5839 5838 5837 5837 5836 5835 5834 5833 5831 5830 5828 5826 5824 5822 5821 5819 5817 5814 5812 5809 5807 5805 5803 5801 5799 5797 5795 5793 5790 5788 5786 5784 5783 5782 5779 5776 5774